Location: Hoyos del Collado
(40.3594°N, 5.2003°W)
Time: 06:02:31
(UTC+00:00)

Cosmos 1697 Rocket - Visible Passes

Search period start: 16 July 2024 00:00
Search period end: 26 July 2024 00:00
Orbit: 833 x 841 km, 71.0° (Epoch: 15 July)

Date Brightness Start Highest point End Pass type
(mag) Time Alt. Az. Time Alt. Az. Time Alt. Az.
16 Jul 3.6 02:53:37 20° SSE 02:57:03 40° ESE 03:02:16 10° NE visible
17 Jul 3.7 02:37:56 23° SSE 02:40:43 37° ESE 02:45:50 10° NE visible
17 Jul 3.7 04:19:45 10° WSW 04:24:41 31° WNW 04:29:38 10° N visible
18 Jul 3.8 02:22:12 26° SE 02:24:23 34° ESE 02:29:24 10° NE visible
18 Jul 3.7 04:03:56 13° WSW 04:08:17 33° WNW 04:13:19 10° N visible
19 Jul 3.9 02:06:26 27° SE 02:08:02 32° ESE 02:12:57 10° NE visible
19 Jul 3.6 03:48:10 17° WSW 03:51:52 36° WNW 03:57:01 10° N visible
20 Jul 3.9 01:50:38 27° ESE 01:51:42 29° ESE 01:56:29 10° NE visible
20 Jul 3.5 03:32:22 21° WSW 03:35:28 38° WNW 03:40:42 10° N visible
21 Jul 4.0 01:34:47 27° ESE 01:35:22 27° ESE 01:40:01 10° NE visible
21 Jul 3.4 03:16:31 26° WSW 03:19:04 41° WNW 03:24:23 10° N visible
22 Jul 4.1 01:18:55 25° ESE 01:19:02 25° ESE 01:23:31 10° NE visible
22 Jul 3.3 03:00:38 32° WSW 03:02:41 44° WNW 03:08:03 10° NNE visible
23 Jul 4.3 01:03:00 23° E 01:03:00 23° E 01:07:01 10° NE visible
23 Jul 3.2 02:44:44 38° WSW 02:46:17 48° WNW 02:51:43 10° NNE visible
24 Jul 4.4 00:47:04 21° E 00:47:04 21° E 00:50:30 10° NE visible
24 Jul 3.0 02:28:47 45° W 02:29:54 52° WNW 02:35:23 10° NNE visible
25 Jul 4.6 00:31:06 19° E 00:31:06 19° E 00:33:57 10° NE visible
25 Jul 2.9 02:12:49 52° W 02:13:30 56° WNW 02:19:02 10° NNE visible
